Regional Weather Roundup
Issued by NWS

Home | Current Version | Previous Version | Text Only | Print | Product List | Glossary On
Versions: 1 2 3 4 5 6 7 8 9 10 11 12 13 14 15 16 17 18 19 20 21 22 23 24 25 26 27 28 29 30 31 32 33 34 35 36 37 38 39 40 41 42 43 44 45 46 47 48 49 50
000
ASUS43 KLSX 192310
RWRMO

WEATHER SUMMARY FOR MISSOURI
NATIONAL WEATHER SERVICE SPRINGFIELD MO
500 PM CST SUN FEB 19 2017

NOTE: "FAIR" INDICATES FEW OR NO CLOUDS BELOW 12,000 FEET WITH NO
       SIGNIFICANT WEATHER AND/OR OBSTRUCTIONS TO VISIBILITY.
       CURRENT SKY AND/OR WEATHER CONDITIONS ARE NOT AVAILABLE FOR
       CHILLICOTHE AND FARMINGTON.

MOZ001>031-035>038-043-044-053-054-200000-
...NORTHERN AND WESTERN MISSOURI...

CITY           SKY/WX    TMP DP  RH WIND       PRES   REMARKS
KANSAS CTY INT MOSUNNY   72  55  55 S13       29.87F
KANSAS C DTWN  SUNNY     75  55  49 S9        29.86F
LEE`S SUMMIT   SUNNY     74  55  51 S12       29.89F
ST JOSEPH      SUNNY     73  55  53 S16       29.86S
CHILLICOTHE      N/A     74  47  38 S10G16    29.90S
KIRKSVILLE     PTCLDY    70  47  43 SE12      29.94S

$$
MOZ066>068-077>081-088>096-101>105-200000-
...SOUTHWEST MISSOURI...

CITY           SKY/WX    TMP DP  RH WIND       PRES   REMARKS
SPRINGFIELD    SUNNY     74  56  53 SE13      29.93F
JOPLIN         MOSUNNY   77  51  40 S10       29.89F
BRANSON        PTSUNNY   75  54  46 SE13      29.96F

$$
MOZ032>034-039>042-045>050-055>058-069>072-200000-
...CENTRAL MISSOURI...

CITY           SKY/WX    TMP DP  RH WIND       PRES   REMARKS
COLUMBIA       CLEAR     75  47  36 SE8       29.95S
JEFFERSON CITY CLEAR     76  45  33 S10       29.93S
ROLLA          CLEAR     71  46  40 S8        29.96F
SEDALIA        CLEAR     77  50  38 S10       29.92F
WHITEMAN AFB   CLEAR     75  53  46 S12       29.89F
WARRENSBURG    CLEAR     73  52  46 S7        29.89F
OSAGE BEACH    CLEAR     74  52  46 S9        29.95S

$$
MOZ051-052-059>065-200000-
...EAST CENTRAL MISSOURI...

CITY           SKY/WX    TMP DP  RH WIND       PRES   REMARKS
ST LOUIS INTL  PTCLDY    69  51  52 SE14      30.02S
SPIRIT OF STL  CLEAR     70  53  54 SE14      30.00R
ST CHARLES     CLEAR     68  51  54 SE13      30.00F

$$
MOZ072>076-082>087-097>100-106>115-200000-
...SOUTH CENTRAL AND SOUTHEAST MISSOURI...

CITY           SKY/WX    TMP DP  RH WIND       PRES   REMARKS
CAPE GIRARDEAU CLEAR     60  54  80 SE8       30.07S
FARMINGTON     CLEAR     68  49  50 S10       30.04S
POPLAR BLUFF   CLEAR     67  59  75 E6        30.04F
WEST PLAINS    CLEAR     67  56  67 S8        30.02F

$$




USA.gov is the U.S. government's official web portal to all federal, state and local government web resources and services.